Regional Weather Roundup
Issued by NWS

Home | Current Version | Previous Version | Graphics & Text | Print | Product List | Glossary On
Versions: 1 2 3 4 5 6 7 8 9 10 11 12 13 14 15 16 17 18 19 20 21 22 23 24 25 26 27 28 29 30 31 32 33 34 35 36 37 38 39 40 41 42 43 44 45 46 47 48 49 50
746
ASUS43 KLMK 252110
RWRKY
KENTUCKY REGIONAL WEATHER ROUNDUP
NATIONAL WEATHER SERVICE LOUISVILLE KY
500 PM EDT SAT MAR 25 2017

NOTE "FAIR" INDICATES FEW OR NO CLOUDS BELOW 12,000 FEET
WITH NO SIGNIFICANT WEATHER AND/OR OBSTRUCTIONS TO VISIBILITY.

KYZ001>023-026-027-061>063-070>075-252200-
WESTERN AND SOUTH CENTRAL KENTUCKY

CITY           SKY/WX    TMP DP  RH WIND       PRES   REMARKS
PADUCAH        PTSUNNY   66  56  70 S20G25    29.89F
HENDERSON      CLOUDY    70  52  52 S21       29.93R
OWENSBORO      CLOUDY    70  55  59 S12       29.95F
HOPKINSVILLE   CLOUDY    66  55  68 S15       29.96F
BOWLING GREEN  CLOUDY    75  53  46 S18       29.98F
GLASGOW        PTSUNNY   74  51  44 S9        30.00F
$$

KYZ024-025-028>034-038-045-046-053-252200-
NORTH CENTRAL KENTUCKY

CITY           SKY/WX    TMP DP  RH WIND       PRES   REMARKS
LOUISVILLE/SDF CLOUDY    76  48  37 S22G28    29.99F
LOUISVILLE/LOU CLOUDY    76  49  38 S15G24    29.99F
FORT KNOX      PTSUNNY   74  51  44 SE17G24   29.97F
$$

KYZ035>037-039>044-047>052-055>060-089>105-252200-
NORTHEAST KENTUCKY

CITY           SKY/WX    TMP DP  RH WIND       PRES   REMARKS
LEXINGTON      MOSUNNY   75  48  38 SE15      30.05F
COVINGTON      CLOUDY    74  51  44 S18       30.02F
FRANKFORT      MOSUNNY   79  47  32 S15G25    30.01F
$$

KYZ054-064>069-076>088-106>120-252200-
SOUTHEAST KENTUCKY

CITY           SKY/WX    TMP DP  RH WIND       PRES   REMARKS
JACKSON        PTSUNNY   76  47  35 VRB6      30.08F
LONDON         CLOUDY    74  46  36 S12       30.08F
SOMERSET       MOSUNNY   72  46  40 S10       30.08S
MIDDLESBORO    MOSUNNY   73  49  42 SE7       30.09F
MONTICELLO     CLOUDY    73  51  46 VRB7G16   30.08S
$$





USA.gov is the U.S. government's official web portal to all federal, state and local government web resources and services.